Date,TemperatureHighF,TemperatureAvgF,TemperatureLowF,DewpointHighF,DewpointAvgF,DewpointLowF,HumidityHigh,HumidityAvg,HumidityLow,PressureMaxIn,PressureMinIn,WindSpeedMaxMPH,WindSpeedAvgMPH,GustSpeedMaxMPH,PrecipitationSumIn
2013-2-1,18.8,4.0,-5.0,6.9,-7.3,-12.0,59,37,19,30.40,30.09,18,2,18,0.00
2013-2-2,23.9,18.0,13.8,16.1,5.7,-1.9,76,59,44,30.12,29.98,20,2,21,0.00
2013-2-3,23.7,19.4,14.9,13.8,5.9,-0.7,77,56,38,30.11,29.93,24,3,27,0.00
2013-2-4,29.1,23.4,15.9,15.3,9.3,3.5,61,54,48,29.98,29.78,21,1,21,0.00
2013-2-5,35.9,27.1,15.6,24.5,16.8,4.7,74,65,54,30.10,29.81,25,2,25,0.02
2013-2-6,46.9,33.9,20.1,29.5,22.3,13.2,79,63,48,30.18,30.01,28,2,28,0.02
2013-2-7,37.2,35.0,30.9,35.6,32.3,26.4,96,90,72,30.08,29.87,20,2,20,0.57
2013-2-8,31.1,27.6,24.9,26.5,18.1,15.2,83,67,61,30.35,30.07,59,3,59,0.00
2013-2-9,37.9,29.1,24.0,26.1,20.3,15.2,81,70,52,30.36,29.98,28,4,28,0.00
2013-2-10,50.7,40.7,31.4,47.4,34.9,24.8,96,81,46,29.99,29.39,33,6,33,0.35
2013-2-11,36.3,31.1,26.2,24.9,16.4,13.7,63,54,49,30.09,29.55,42,12,43,0.00
2013-2-12,37.5,29.5,23.7,21.1,15.5,5.5,68,56,35,30.13,29.89,17,3,44,0.00
2013-2-13,45.5,35.4,25.7,27.0,22.9,18.1,75,61,44,29.89,29.70,16,2,18,0.00
2013-2-14,42.9,36.7,28.5,26.2,23.9,17.0,74,60,40,30.04,29.67,30,6,30,0.00
2013-2-15,32.3,23.4,15.9,20.5,0.0,-11.2,71,38,19,30.24,30.04,23,5,23,0.00
2013-2-16,24.6,17.1,10.2,3.7,-1.2,-10.2,56,44,22,30.24,30.14,21,2,21,0.00
2013-2-17,39.3,25.0,12.0,16.0,3.0,-4.0,56,41,19,30.17,29.83,24,4,24,0.00
2013-2-18,56.6,36.4,15.9,38.8,24.1,0.0,87,62,41,29.84,29.51,33,7,37,0.08
2013-2-19,19.5,11.7,3.7,4.3,-5.8,-12.0,59,45,4,30.29,29.78,30,8,30,0.00
2013-2-20,24.2,12.5,0.5,3.7,-4.3,-12.0,53,44,36,30.41,30.28,17,4,17,0.00
2013-2-21,27.1,20.7,13.1,20.0,9.6,0.3,83,62,49,30.35,29.88,36,6,44,0.00
2013-2-22,31.4,25.8,22.6,26.8,18.6,12.6,86,74,60,29.96,29.76,23,5,23,0.00
2013-2-23,32.5,24.2,17.9,14.6,10.1,7.4,65,55,42,29.98,29.92,22,4,22,0.04
2013-2-24,40.8,26.7,13.6,18.7,11.9,-0.1,73,56,19,30.11,29.98,12,1,12,0.08
2013-2-25,42.9,32.4,22.2,23.4,19.8,15.0,78,61,39,30.12,29.89,28,3,28,0.00
2013-2-26,34.8,32.2,29.6,27.7,24.0,20.2,87,72,55,29.89,29.56,37,5,37,0.00
2013-2-27,32.5,30.0,27.5,28.5,25.5,22.5,86,83,79,29.83,29.64,18,2,18,0.02
2013-2-28,35.0,31.7,29.1,27.5,24.9,22.6,85,76,65,30.09,29.83,28,3,28,0.10